| time (UTC) | temp F | wind direction | speed knots | gust knots | rain 1hr in | rain 24hr in | rain mn in | humidity % | barometer mb |
| 20260505090105 | 69 | 313 | 4.3 | 7.8 | 0.00 | 0.07 | 0.07 | 55 | 1006.2 |
| 20260505084535 | 69 | 305 | 1.7 | 7.8 | 0.00 | 0.07 | 0.07 | 58 | 1006.3 |
| 20260505083047 | 68 | 342 | 1.7 | 5.2 | 0.00 | 0.07 | 0.07 | 60 | 1006.4 |
| 20260505081601 | 69 | 360 | 2.6 | 7.8 | 0.00 | 0.07 | 0.07 | 60 | 1006.3 |
| 20260505080047 | 69 | 296 | 4.3 | 7.8 | 0.00 | 0.07 | 0.07 | 60 | 1006.3 |
| 20260505074504 | 70 | 350 | 0.9 | 4.3 | 0.00 | 0.07 | 0.07 | 60 | 1006.4 |
| 20260505073023 | 68 | 16 | 0.9 | 4.3 | 0.00 | 0.07 | 0.07 | 64 | 1006.6 |
| 20260505071537 | 68 | 76 | 2.6 | 7.0 | 0.00 | 0.07 | 0.07 | 66 | 1006.6 |
| 20260505070052 | 66 | 335 | 0.9 | 3.5 | 0.00 | 0.07 | 0.07 | 70 | 1006.8 |
| 20260505064519 | 64 | 350 | 1.7 | 3.5 | 0.00 | 0.07 | 0.07 | 77 | 1006.9 |
| 20260505063039 | 62 | 216 | 0.0 | 1.7 | 0.00 | 0.07 | 0.07 | 85 | 1007.1 |
| 20260505061616 | 60 | 214 | 0.0 | 1.7 | 0.00 | 0.07 | 0.07 | 93 | 1007.0 |
| 20260505060018 | 58 | 215 | 1.7 | 4.3 | 0.00 | 0.07 | 0.07 | 93 | 1007.3 |
| 20260505054531 | 58 | 217 | 0.0 | 1.7 | 0.00 | 0.07 | 0.07 | 94 | 1007.2 |
| 20260505053029 | 57 | 219 | 0.0 | 0.0 | 0.00 | 0.07 | 0.07 | 95 | 1007.1 |
| 20260505051530 | 57 | 216 | 0.0 | 2.6 | 0.00 | 0.07 | 0.07 | 95 | 1007.2 |
| 20260505041539 | 55 | 227 | 2.6 | 5.2 | 0.00 | 0.07 | 0.07 | 94 | 1007.3 |
| 20260505034537 | 55 | 222 | 0.0 | 0.0 | 0.00 | 0.07 | 0.07 | 93 | 1007.3 |
| 20260505033048 | 56 | 214 | 0.0 | 0.0 | 0.00 | 0.07 | 0.07 | 93 | 1007.4 |
| 20260505031544 | 56 | 215 | 0.0 | 0.0 | 0.00 | 0.07 | 0.07 | 93 | 1007.5 |
| 20260505030110 | 56 | 213 | 0.0 | 3.5 | 0.00 | 0.07 | 0.07 | 93 | 1007.7 |
| 20260505024609 | 57 | 255 | 0.0 | 2.6 | 0.00 | 0.07 | 0.07 | 93 | 1007.8 |
| 20260505023049 | 57 | 30 | 0.0 | 0.0 | 0.00 | 0.07 | 0.07 | 93 | 1007.6 |
| 20260505021613 | 57 | 28 | 0.0 | 0.0 | 0.00 | 0.07 | 0.07 | 92 | 1007.6 |
| 20260505020030 | 57 | 30 | 0.0 | 0.0 | 0.00 | 0.07 | 0.07 | 92 | 1007.6 |
| 20260505014546 | 58 | 32 | 0.0 | 0.0 | 0.00 | 0.07 | 0.07 | 92 | 1007.6 |
| 20260505013010 | 58 | 34 | 0.0 | 0.0 | 0.00 | 0.07 | 0.07 | 91 | 1007.8 |
| 20260505011528 | 58 | 36 | 0.0 | 0.0 | 0.00 | 0.07 | 0.07 | 91 | 1007.9 |
| 20260505010012 | 58 | 36 | 0.0 | 0.0 | 0.00 | 0.07 | 0.07 | 91 | 1008.0 |
| 20260505004513 | 58 | 33 | 0.0 | 0.0 | 0.00 | 0.07 | 0.07 | 90 | 1008.1 |
| 20260505003101 | 58 | 33 | 0.0 | 0.0 | 0.00 | 0.07 | 0.07 | 89 | 1008.2 |
| 20260505001506 | 59 | 43 | 0.9 | 7.0 | 0.01 | 0.07 | 0.07 | 88 | 1008.3 |
| 20260505000110 | 59 | 291 | 0.9 | 4.3 | 0.02 | 0.07 | 0.07 | 88 | 1008.5 |
| 20260504234556 | 59 | 266 | 0.0 | 7.0 | 0.04 | 0.07 | 0.07 | 87 | 1008.8 |
| 20260504233111 | 59 | 154 | 2.6 | 8.7 | 0.04 | 0.07 | 0.07 | 85 | 1008.1 |
| 20260504231602 | 59 | 90 | 6.1 | 12.2 | 0.06 | 0.06 | 0.06 | 83 | 1009.0 |
| 20260504230054 | 60 | 128 | 2.6 | 9.6 | 0.05 | 0.05 | 0.05 | 80 | 1009.6 |
| 20260504224550 | 61 | 88 | 1.7 | 4.3 | 0.03 | 0.03 | 0.03 | 79 | 1010.1 |
| 20260504223037 | 62 | 240 | 2.6 | 7.8 | 0.03 | 0.03 | 0.03 | 76 | 1010.8 |
| 20260504221535 | 64 | 223 | 4.3 | 14.8 | 0.00 | 0.00 | 0.00 | 66 | 1010.9 |
| 20260504214600 | 66 | 68 | 0.0 | 0.0 | 0.00 | 0.00 | 0.00 | 58 | 1009.4 |
| 20260504213029 | 66 | 68 | 0.0 | 1.7 | 0.00 | 0.00 | 0.00 | 55 | 1009.7 |
| 20260504211506 | 66 | 71 | 0.9 | 2.6 | 0.00 | 0.00 | 0.00 | 55 | 1009.7 |
| 20260504210027 | 66 | 74 | 0.0 | 0.9 | 0.00 | 0.00 | 0.00 | 56 | 1009.8 |
| 20260504204531 | 66 | 74 | 0.0 | 0.0 | 0.00 | 0.00 | 0.00 | 56 | 1009.9 |
| 20260504203058 | 67 | 74 | 0.0 | 0.0 | 0.00 | 0.00 | 0.00 | 54 | 1009.8 |
| 20260504201521 | 67 | 74 | 0.0 | 0.0 | 0.00 | 0.00 | 0.00 | 52 | 1009.8 |
| 20260504200012 | 68 | 75 | 0.0 | 4.3 | 0.00 | 0.00 | 0.00 | 50 | 1009.9 |
| 20260504194529 | 68 | 74 | 0.0 | 1.7 | 0.00 | 0.00 | 0.00 | 50 | 1009.8 |
| 20260504193037 | 69 | 74 | 0.9 | 3.5 | 0.00 | 0.00 | 0.00 | 49 | 1009.8 |
| 20260504191526 | 70 | 77 | 0.0 | 0.9 | 0.00 | 0.00 | 0.00 | 48 | 1009.8 |
| 20260504190040 | 70 | 77 | 0.9 | 4.3 | 0.00 | 0.00 | 0.00 | 46 | 1009.7 |
| 20260504184535 | 71 | 38 | 0.9 | 3.5 | 0.00 | 0.00 | 0.00 | 45 | 1009.6 |
| 20260504183044 | 71 | 53 | 0.9 | 3.5 | 0.00 | 0.00 | 0.00 | 44 | 1009.5 |
| 20260504181555 | 72 | 35 | 0.0 | 2.6 | 0.00 | 0.00 | 0.00 | 43 | 1009.5 |
| 20260504180107 | 72 | 42 | 0.9 | 3.5 | 0.00 | 0.00 | 0.00 | 42 | 1009.5 |
| 20260504174556 | 72 | 26 | 0.9 | 4.3 | 0.00 | 0.00 | 0.00 | 41 | 1009.5 |
| 20260504173110 | 73 | 42 | 2.6 | 6.1 | 0.00 | 0.00 | 0.00 | 41 | 1009.5 |
| 20260504171514 | 73 | 47 | 1.7 | 5.2 | 0.00 | 0.00 | 0.00 | 41 | 1009.5 |